| time (UTC) | temp F | wind direction | speed knots | gust knots | rain 1hr in | rain 24hr in | rain mn in | humidity % | barometer mb |
| 20260510120718 | 66 | 147 | 0.0 | 0.0 | 0.00 | 0.00 | 0.00 | 77 | 1014.9 |
| 20260510120214 | 65 | 117 | 0.0 | 0.9 | 0.00 | 0.00 | 0.00 | 79 | 1014.9 |
| 20260510115710 | 65 | 146 | 0.0 | 0.0 | 0.00 | 0.00 | 0.00 | 80 | 1014.9 |
| 20260510115208 | 65 | 147 | 0.0 | 0.0 | 0.00 | 0.00 | 0.00 | 80 | 1014.9 |
| 20260510114702 | 64 | 143 | 0.0 | 0.0 | 0.00 | 0.00 | 0.00 | 82 | 1014.7 |
| 20260510114200 | 62 | 145 | 0.0 | 0.0 | 0.00 | 0.00 | 0.00 | 84 | 1014.6 |
| 20260510113649 | 62 | 148 | 0.0 | 0.0 | 0.00 | 0.00 | 0.00 | 84 | 1014.6 |
| 20260510113146 | 60 | 146 | 0.0 | 0.0 | 0.00 | 0.00 | 0.00 | 85 | 1014.5 |
| 20260510112642 | 60 | 145 | 0.0 | 0.0 | 0.00 | 0.00 | 0.00 | 92 | 1014.4 |
| 20260510112139 | 57 | 149 | 0.0 | 0.0 | 0.00 | 0.00 | 0.00 | 94 | 1014.4 |
| 20260510111635 | 57 | 148 | 0.0 | 0.0 | 0.00 | 0.00 | 0.00 | 94 | 1014.3 |
| 20260510111131 | 56 | 151 | 0.0 | 0.0 | 0.00 | 0.00 | 0.00 | 94 | 1014.2 |
| 20260510110627 | 56 | 158 | 0.0 | 0.0 | 0.00 | 0.00 | 0.00 | 94 | 1013.9 |
| 20260510110125 | 55 | 164 | 0.0 | 0.0 | 0.00 | 0.00 | 0.00 | 94 | 1013.8 |
| 20260510105620 | 55 | 153 | 0.0 | 0.0 | 0.00 | 0.00 | 0.00 | 94 | 1013.9 |
| 20260510105115 | 55 | 155 | 0.0 | 0.0 | 0.00 | 0.00 | 0.00 | 94 | 1013.9 |
| 20260510104612 | 54 | 163 | 0.0 | 0.0 | 0.00 | 0.00 | 0.00 | 94 | 1013.9 |
| 20260510104108 | 54 | 158 | 0.0 | 0.0 | 0.00 | 0.00 | 0.00 | 94 | 1013.7 |
| 20260510103605 | 54 | 177 | 0.0 | 0.0 | 0.00 | 0.00 | 0.00 | 94 | 1013.7 |
| 20260510103101 | 54 | 155 | 0.0 | 0.0 | 0.00 | 0.00 | 0.00 | 94 | 1013.7 |
| 20260510102557 | 54 | 160 | 0.0 | 0.0 | 0.00 | 0.00 | 0.00 | 94 | 1013.5 |
| 20260510102053 | 54 | 155 | 0.0 | 0.0 | 0.00 | 0.00 | 0.00 | 94 | 1013.4 |
| 20260510101551 | 54 | 163 | 0.0 | 0.0 | 0.00 | 0.00 | 0.00 | 94 | 1013.5 |
| 20260510101049 | 54 | 155 | 0.0 | 0.0 | 0.00 | 0.00 | 0.00 | 94 | 1013.3 |
| 20260510100545 | 54 | 157 | 0.0 | 0.0 | 0.00 | 0.00 | 0.00 | 94 | 1013.3 |
| 20260510100043 | 54 | 153 | 0.0 | 0.0 | 0.00 | 0.00 | 0.00 | 94 | 1013.3 |
| 20260510095539 | 54 | 159 | 0.0 | 0.0 | 0.00 | 0.00 | 0.00 | 94 | 1013.3 |
| 20260510095037 | 54 | 162 | 0.0 | 0.0 | 0.00 | 0.00 | 0.00 | 94 | 1013.2 |
| 20260510094533 | 54 | 155 | 0.0 | 0.0 | 0.00 | 0.00 | 0.00 | 94 | 1013.2 |
| 20260510094028 | 54 | 156 | 0.0 | 0.0 | 0.00 | 0.00 | 0.00 | 94 | 1013.3 |
| 20260510093524 | 55 | 156 | 0.0 | 0.0 | 0.00 | 0.00 | 0.00 | 93 | 1013.3 |
| 20260510093021 | 55 | 164 | 0.0 | 0.0 | 0.00 | 0.00 | 0.00 | 93 | 1013.2 |
| 20260510092518 | 55 | 161 | 0.0 | 0.0 | 0.00 | 0.00 | 0.00 | 93 | 1013.2 |
| 20260510092017 | 55 | 159 | 0.0 | 0.0 | 0.00 | 0.00 | 0.00 | 93 | 1013.1 |
| 20260510091515 | 55 | 156 | 0.0 | 0.0 | 0.00 | 0.00 | 0.00 | 93 | 1013.2 |
| 20260510091010 | 55 | 162 | 0.0 | 0.0 | 0.00 | 0.00 | 0.00 | 93 | 1013.2 |
| 20260510090508 | 55 | 156 | 0.0 | 0.0 | 0.00 | 0.00 | 0.00 | 93 | 1013.2 |
| 20260510090003 | 55 | 158 | 0.0 | 0.0 | 0.00 | 0.00 | 0.00 | 93 | 1012.9 |
| 20260510085458 | 55 | 157 | 0.0 | 0.0 | 0.00 | 0.00 | 0.00 | 93 | 1013.1 |
| 20260510084954 | 55 | 163 | 0.0 | 0.0 | 0.00 | 0.00 | 0.00 | 93 | 1012.9 |
| 20260510084451 | 55 | 160 | 0.0 | 0.0 | 0.00 | 0.00 | 0.00 | 93 | 1013.1 |
| 20260510083948 | 55 | 158 | 0.0 | 0.0 | 0.00 | 0.00 | 0.00 | 93 | 1012.9 |
| 20260510083445 | 55 | 158 | 0.0 | 0.0 | 0.00 | 0.00 | 0.00 | 93 | 1012.8 |
| 20260510082940 | 55 | 163 | 0.0 | 0.0 | 0.00 | 0.00 | 0.00 | 93 | 1013.0 |
| 20260510082438 | 56 | 163 | 0.0 | 0.0 | 0.00 | 0.00 | 0.00 | 93 | 1012.7 |
| 20260510081937 | 56 | 156 | 0.0 | 0.0 | 0.00 | 0.00 | 0.00 | 92 | 1012.6 |
| 20260510081433 | 56 | 157 | 0.0 | 0.0 | 0.00 | 0.00 | 0.00 | 92 | 1012.6 |
| 20260510080930 | 56 | 149 | 0.0 | 0.0 | 0.00 | 0.00 | 0.00 | 92 | 1012.5 |
| 20260510080428 | 56 | 154 | 0.0 | 0.0 | 0.00 | 0.00 | 0.00 | 92 | 1012.6 |
| 20260510075925 | 56 | 156 | 0.0 | 0.0 | 0.00 | 0.00 | 0.00 | 92 | 1012.5 |
| 20260510075424 | 56 | 169 | 0.0 | 0.0 | 0.00 | 0.00 | 0.00 | 92 | 1012.5 |
| 20260510074920 | 56 | 162 | 0.0 | 0.0 | 0.00 | 0.00 | 0.00 | 92 | 1012.3 |
| 20260510074417 | 56 | 158 | 0.0 | 0.0 | 0.00 | 0.00 | 0.00 | 91 | 1012.1 |
| 20260510073913 | 56 | 156 | 0.0 | 0.0 | 0.00 | 0.00 | 0.00 | 91 | 1012.2 |
| 20260510073409 | 57 | 155 | 0.0 | 0.0 | 0.00 | 0.00 | 0.00 | 91 | 1012.1 |
| 20260510072906 | 57 | 156 | 0.0 | 0.0 | 0.00 | 0.00 | 0.00 | 90 | 1012.1 |
| 20260510072402 | 57 | 164 | 0.0 | 0.0 | 0.00 | 0.00 | 0.00 | 90 | 1012.3 |
| 20260510071858 | 57 | 159 | 0.0 | 0.0 | 0.00 | 0.00 | 0.00 | 90 | 1012.2 |
| 20260510071355 | 57 | 157 | 0.0 | 0.0 | 0.00 | 0.00 | 0.00 | 90 | 1012.1 |
| 20260510070853 | 57 | 159 | 0.0 | 0.0 | 0.00 | 0.00 | 0.00 | 90 | 1011.8 |
| 20260510070350 | 58 | 164 | 0.0 | 0.0 | 0.00 | 0.00 | 0.00 | 90 | 1011.8 |
| 20260510065850 | 58 | 163 | 0.0 | 0.0 | 0.00 | 0.00 | 0.00 | 90 | 1011.9 |
| 20260510065347 | 58 | 153 | 0.0 | 0.0 | 0.00 | 0.00 | 0.00 | 89 | 1011.9 |
| 20260510064843 | 58 | 153 | 0.0 | 0.0 | 0.00 | 0.00 | 0.00 | 89 | 1011.7 |
| 20260510064342 | 58 | 157 | 0.0 | 0.0 | 0.00 | 0.00 | 0.00 | 89 | 1011.8 |
| 20260510063838 | 58 | 154 | 0.0 | 0.0 | 0.00 | 0.00 | 0.00 | 89 | 1012.1 |
| 20260510063334 | 58 | 155 | 0.0 | 0.0 | 0.00 | 0.00 | 0.00 | 89 | 1011.8 |
| 20260510062831 | 58 | 158 | 0.0 | 0.0 | 0.00 | 0.00 | 0.00 | 89 | 1011.9 |
| 20260510062326 | 58 | 154 | 0.0 | 0.0 | 0.00 | 0.00 | 0.00 | 88 | 1011.8 |
| 20260510061821 | 58 | 155 | 0.0 | 0.0 | 0.00 | 0.00 | 0.00 | 88 | 1011.8 |
| 20260510061319 | 59 | 155 | 0.0 | 0.0 | 0.00 | 0.00 | 0.00 | 88 | 1011.8 |
| 20260510060815 | 59 | 157 | 0.0 | 0.0 | 0.00 | 0.00 | 0.00 | 87 | 1011.8 |
| 20260510060312 | 59 | 153 | 0.0 | 0.0 | 0.00 | 0.00 | 0.00 | 87 | 1011.6 |
| 20260510055809 | 59 | 153 | 0.0 | 0.0 | 0.00 | 0.00 | 0.00 | 86 | 1011.8 |
| 20260510055308 | 60 | 153 | 0.0 | 0.0 | 0.00 | 0.00 | 0.00 | 86 | 1011.6 |
| 20260510054807 | 60 | 155 | 0.0 | 0.0 | 0.00 | 0.00 | 0.00 | 85 | 1011.8 |
| 20260510054304 | 60 | 157 | 0.0 | 0.0 | 0.00 | 0.00 | 0.00 | 85 | 1011.7 |
| 20260510053804 | 61 | 159 | 0.0 | 0.0 | 0.00 | 0.00 | 0.00 | 84 | 1011.7 |
| 20260510053254 | 61 | 155 | 0.0 | 0.0 | 0.00 | 0.00 | 0.00 | 83 | 1011.6 |
| 20260510052750 | 61 | 152 | 0.0 | 0.0 | 0.00 | 0.00 | 0.00 | 82 | 1011.7 |
| 20260510052245 | 62 | 151 | 0.0 | 0.0 | 0.00 | 0.00 | 0.00 | 82 | 1011.8 |
| 20260510051742 | 62 | 151 | 0.0 | 0.0 | 0.00 | 0.00 | 0.00 | 81 | 1011.6 |
| 20260510051238 | 62 | 154 | 0.0 | 0.0 | 0.00 | 0.00 | 0.00 | 81 | 1011.7 |
| 20260510050735 | 62 | 148 | 0.0 | 0.0 | 0.00 | 0.00 | 0.00 | 81 | 1011.8 |
| 20260510050233 | 62 | 151 | 0.0 | 0.0 | 0.00 | 0.00 | 0.00 | 81 | 1011.8 |
| 20260510045729 | 62 | 148 | 0.0 | 0.0 | 0.00 | 0.00 | 0.00 | 81 | 1011.9 |
| 20260510045226 | 62 | 153 | 0.0 | 0.0 | 0.00 | 0.00 | 0.00 | 81 | 1011.8 |
| 20260510044722 | 62 | 155 | 0.0 | 0.0 | 0.00 | 0.00 | 0.00 | 80 | 1011.8 |
| 20260510044221 | 63 | 149 | 0.0 | 0.0 | 0.00 | 0.00 | 0.00 | 79 | 1011.9 |
| 20260510043715 | 63 | 146 | 0.0 | 0.0 | 0.00 | 0.00 | 0.00 | 79 | 1011.7 |
| 20260510043212 | 63 | 158 | 0.0 | 0.0 | 0.00 | 0.00 | 0.00 | 78 | 1011.9 |
| 20260510042709 | 63 | 151 | 0.0 | 0.9 | 0.00 | 0.00 | 0.00 | 78 | 1011.9 |
| 20260510042206 | 63 | 153 | 0.0 | 0.0 | 0.00 | 0.00 | 0.00 | 78 | 1011.8 |
| 20260510041703 | 63 | 156 | 0.0 | 0.0 | 0.00 | 0.00 | 0.00 | 78 | 1011.9 |
| 20260510041200 | 64 | 176 | 0.0 | 1.7 | 0.00 | 0.00 | 0.00 | 78 | 1011.7 |
| 20260510040657 | 64 | 151 | 0.0 | 0.9 | 0.00 | 0.00 | 0.00 | 77 | 1011.7 |
| 20260510040154 | 64 | 150 | 0.0 | 1.7 | 0.00 | 0.00 | 0.00 | 78 | 1011.9 |
| 20260510035649 | 64 | 152 | 0.0 | 0.0 | 0.00 | 0.00 | 0.00 | 78 | 1011.7 |
| 20260510035144 | 63 | 153 | 0.0 | 0.0 | 0.00 | 0.00 | 0.00 | 78 | 1011.6 |
| 20260510034641 | 63 | 158 | 0.0 | 0.0 | 0.00 | 0.00 | 0.00 | 78 | 1011.8 |
| 20260510034138 | 63 | 154 | 0.0 | 0.0 | 0.00 | 0.00 | 0.00 | 78 | 1011.6 |
| 20260510033635 | 63 | 153 | 0.0 | 0.0 | 0.00 | 0.00 | 0.00 | 78 | 1011.6 |
| 20260510033133 | 63 | 159 | 0.0 | 0.0 | 0.00 | 0.00 | 0.00 | 78 | 1011.5 |
| 20260510032629 | 63 | 148 | 0.0 | 0.0 | 0.00 | 0.00 | 0.00 | 77 | 1011.4 |
| 20260510032124 | 64 | 153 | 0.0 | 0.0 | 0.00 | 0.00 | 0.00 | 77 | 1011.5 |
| 20260510031619 | 64 | 153 | 0.0 | 0.0 | 0.00 | 0.00 | 0.00 | 76 | 1011.5 |
| 20260510031116 | 64 | 154 | 0.0 | 0.0 | 0.00 | 0.00 | 0.00 | 75 | 1011.6 |
| 20260510030611 | 65 | 156 | 0.0 | 0.0 | 0.00 | 0.00 | 0.00 | 75 | 1011.5 |
| 20260510030109 | 65 | 155 | 0.0 | 0.0 | 0.00 | 0.00 | 0.00 | 75 | 1011.5 |
| 20260510025606 | 65 | 154 | 0.0 | 0.0 | 0.00 | 0.00 | 0.00 | 74 | 1011.3 |
| 20260510025103 | 66 | 154 | 0.0 | 0.0 | 0.00 | 0.00 | 0.00 | 73 | 1011.4 |
| 20260510024600 | 66 | 162 | 0.0 | 0.0 | 0.00 | 0.00 | 0.00 | 72 | 1011.6 |
| 20260510024056 | 66 | 152 | 0.0 | 0.0 | 0.00 | 0.00 | 0.00 | 72 | 1011.4 |
| 20260510023552 | 66 | 154 | 0.0 | 0.0 | 0.00 | 0.00 | 0.00 | 71 | 1011.3 |
| 20260510023050 | 67 | 152 | 0.0 | 0.0 | 0.00 | 0.00 | 0.00 | 70 | 1011.2 |
| 20260510022549 | 67 | 156 | 0.0 | 0.0 | 0.00 | 0.00 | 0.00 | 70 | 1011.3 |
| 20260510022043 | 67 | 147 | 0.0 | 0.0 | 0.00 | 0.00 | 0.00 | 69 | 1011.1 |
| 20260510021540 | 68 | 140 | 0.0 | 0.0 | 0.00 | 0.00 | 0.00 | 69 | 1011.2 |
| 20260510021038 | 68 | 145 | 0.0 | 0.0 | 0.00 | 0.00 | 0.00 | 68 | 1011.0 |
| 20260510020532 | 68 | 140 | 0.0 | 0.0 | 0.00 | 0.00 | 0.00 | 68 | 1011.1 |
| 20260510020028 | 68 | 145 | 0.0 | 0.9 | 0.00 | 0.00 | 0.00 | 67 | 1011.0 |
| 20260510015523 | 68 | 147 | 0.0 | 0.0 | 0.00 | 0.00 | 0.00 | 67 | 1011.0 |
| 20260510015020 | 68 | 143 | 0.0 | 0.0 | 0.00 | 0.00 | 0.00 | 67 | 1011.0 |
| 20260510014517 | 68 | 146 | 0.0 | 0.9 | 0.00 | 0.00 | 0.00 | 67 | 1011.0 |
| 20260510014014 | 68 | 141 | 0.0 | 0.9 | 0.00 | 0.00 | 0.00 | 67 | 1010.9 |
| 20260510013508 | 68 | 109 | 0.0 | 0.9 | 0.00 | 0.00 | 0.00 | 66 | 1010.6 |
| 20260510013004 | 68 | 148 | 0.0 | 0.9 | 0.00 | 0.00 | 0.00 | 66 | 1010.9 |
| 20260510012458 | 69 | 148 | 0.0 | 0.9 | 0.00 | 0.00 | 0.00 | 66 | 1010.6 |
| 20260510011954 | 69 | 78 | 0.0 | 0.9 | 0.00 | 0.00 | 0.00 | 65 | 1010.6 |
| 20260510011449 | 69 | 129 | 0.0 | 0.9 | 0.00 | 0.00 | 0.00 | 64 | 1010.6 |
| 20260510010945 | 70 | 138 | 0.0 | 0.9 | 0.00 | 0.00 | 0.00 | 63 | 1010.7 |
| 20260510010443 | 69 | 138 | 0.0 | 0.9 | 0.00 | 0.00 | 0.00 | 62 | 1010.2 |
| 20260510005939 | 69 | 139 | 0.0 | 0.9 | 0.00 | 0.00 | 0.00 | 63 | 1010.1 |
| 20260510005435 | 69 | 153 | 0.0 | 0.0 | 0.00 | 0.00 | 0.00 | 63 | 1010.1 |
| 20260510004932 | 69 | 156 | 0.0 | 0.0 | 0.00 | 0.00 | 0.00 | 62 | 1010.0 |
| 20260510004430 | 69 | 156 | 0.0 | 0.0 | 0.00 | 0.00 | 0.00 | 61 | 1010.2 |
| 20260510003928 | 70 | 158 | 0.0 | 0.0 | 0.00 | 0.00 | 0.00 | 61 | 1010.2 |
| 20260510003425 | 70 | 156 | 0.0 | 0.0 | 0.00 | 0.00 | 0.00 | 60 | 1010.2 |
| 20260510002924 | 70 | 162 | 0.0 | 0.0 | 0.00 | 0.00 | 0.00 | 59 | 1009.9 |
| 20260510002421 | 71 | 154 | 0.0 | 0.0 | 0.00 | 0.00 | 0.00 | 58 | 1010.0 |
| 20260510001918 | 71 | 156 | 0.0 | 0.0 | 0.00 | 0.00 | 0.00 | 57 | 1009.9 |
| 20260510001415 | 71 | 152 | 0.0 | 0.0 | 0.00 | 0.00 | 0.00 | 57 | 1009.7 |
| 20260510000912 | 72 | 155 | 0.0 | 0.0 | 0.00 | 0.00 | 0.00 | 56 | 1010.0 |
| 20260510000411 | 72 | 161 | 0.0 | 0.0 | 0.00 | 0.00 | 0.00 | 56 | 1009.8 |
| 20260509235905 | 73 | 146 | 0.0 | 0.0 | 0.00 | 0.00 | 0.00 | 55 | 1009.9 |
| 20260509235402 | 73 | 146 | 0.0 | 0.0 | 0.00 | 0.00 | 0.00 | 54 | 1009.8 |
| 20260509234858 | 73 | 151 | 0.0 | 0.0 | 0.00 | 0.00 | 0.00 | 53 | 1009.8 |
| 20260509234356 | 73 | 148 | 0.0 | 1.7 | 0.00 | 0.00 | 0.00 | 53 | 1009.7 |
| 20260509233853 | 74 | 150 | 0.0 | 0.0 | 0.00 | 0.00 | 0.00 | 53 | 1009.7 |
| 20260509233351 | 74 | 151 | 0.0 | 0.9 | 0.00 | 0.00 | 0.00 | 52 | 1009.7 |
| 20260509232846 | 74 | 151 | 0.0 | 0.0 | 0.00 | 0.00 | 0.00 | 52 | 1009.5 |
| 20260509232345 | 74 | 192 | 0.0 | 0.9 | 0.00 | 0.00 | 0.00 | 50 | 1009.7 |
| 20260509231840 | 74 | 176 | 0.0 | 0.9 | 0.00 | 0.00 | 0.00 | 51 | 1009.7 |
| 20260509231337 | 74 | 143 | 0.0 | 0.0 | 0.00 | 0.00 | 0.00 | 51 | 1009.5 |
| 20260509230835 | 75 | 163 | 0.9 | 1.7 | 0.00 | 0.00 | 0.00 | 50 | 1009.4 |
| 20260509230332 | 75 | 202 | 0.0 | 0.0 | 0.00 | 0.00 | 0.00 | 50 | 1009.4 |
| 20260509225827 | 75 | 136 | 0.0 | 0.0 | 0.00 | 0.00 | 0.00 | 50 | 1009.5 |
| 20260509225324 | 75 | 151 | 0.0 | 1.7 | 0.00 | 0.00 | 0.00 | 50 | 1009.6 |
| 20260509224820 | 75 | 155 | 0.9 | 2.6 | 0.00 | 0.00 | 0.00 | 50 | 1009.7 |
| 20260509224316 | 75 | 168 | 1.7 | 2.6 | 0.00 | 0.00 | 0.00 | 50 | 1009.5 |
| 20260509223813 | 75 | 122 | 0.0 | 0.9 | 0.00 | 0.00 | 0.00 | 50 | 1009.4 |
| 20260509223310 | 75 | 173 | 0.0 | 0.0 | 0.00 | 0.00 | 0.00 | 51 | 1009.6 |
| 20260509222807 | 75 | 124 | 0.0 | 1.7 | 0.00 | 0.00 | 0.00 | 51 | 1009.5 |
| 20260509222306 | 75 | 83 | 0.9 | 2.6 | 0.00 | 0.00 | 0.00 | 51 | 1009.7 |
| 20260509221758 | 75 | 139 | 0.0 | 0.9 | 0.00 | 0.00 | 0.00 | 50 | 1009.9 |
| 20260509221255 | 77 | 118 | 0.0 | 1.7 | 0.00 | 0.00 | 0.00 | 49 | 1009.8 |
| 20260509220750 | 76 | 213 | 1.7 | 2.6 | 0.00 | 0.00 | 0.00 | 50 | 1009.7 |
| 20260509220247 | 76 | 164 | 0.0 | 0.9 | 0.00 | 0.00 | 0.00 | 50 | 1009.7 |
| 20260509215742 | 75 | 179 | 0.0 | 0.0 | 0.00 | 0.00 | 0.00 | 51 | 1009.6 |
| 20260509215239 | 75 | 217 | 0.0 | 1.7 | 0.00 | 0.00 | 0.00 | 51 | 1009.5 |
| 20260509214736 | 75 | 171 | 0.9 | 3.5 | 0.00 | 0.00 | 0.00 | 52 | 1009.7 |
| 20260509214234 | 76 | 144 | 1.7 | 2.6 | 0.00 | 0.00 | 0.00 | 50 | 1009.7 |
| 20260509213731 | 76 | 97 | 0.0 | 5.2 | 0.00 | 0.00 | 0.00 | 50 | 1009.7 |
| 20260509213226 | 74 | 111 | 0.0 | 1.7 | 0.00 | 0.00 | 0.00 | 52 | 1009.7 |
| 20260509212724 | 75 | 170 | 0.0 | 2.6 | 0.00 | 0.00 | 0.00 | 51 | 1009.7 |
| 20260509212221 | 76 | 277 | 1.7 | 1.7 | 0.00 | 0.00 | 0.00 | 50 | 1009.6 |
| 20260509211716 | 77 | 176 | 1.7 | 3.5 | 0.00 | 0.00 | 0.00 | 49 | 1009.8 |
| 20260509211213 | 77 | 249 | 2.6 | 5.2 | 0.00 | 0.00 | 0.00 | 48 | 1009.8 |
| 20260509210709 | 77 | 158 | 0.0 | 0.9 | 0.00 | 0.00 | 0.00 | 48 | 1009.6 |
| 20260509210202 | 78 | 260 | 1.7 | 2.6 | 0.00 | 0.00 | 0.00 | 47 | 1009.6 |
| 20260509205701 | 76 | 55 | 0.0 | 2.6 | 0.00 | 0.00 | 0.00 | 49 | 1009.6 |
| 20260509205200 | 77 | 280 | 3.5 | 3.5 | 0.00 | 0.00 | 0.00 | 48 | 1009.4 |
| 20260509204657 | 78 | 124 | 1.7 | 1.7 | 0.00 | 0.00 | 0.00 | 48 | 1009.4 |
| 20260509204153 | 77 | 227 | 0.9 | 5.2 | 0.00 | 0.00 | 0.00 | 48 | 1009.3 |
| 20260509203649 | 77 | 114 | 0.9 | 3.5 | 0.00 | 0.00 | 0.00 | 49 | 1009.4 |
| 20260509203148 | 77 | 133 | 0.9 | 1.7 | 0.00 | 0.00 | 0.00 | 49 | 1009.3 |
| 20260509202643 | 76 | 96 | 0.0 | 2.6 | 0.00 | 0.00 | 0.00 | 49 | 1009.4 |
| 20260509202138 | 77 | 335 | 2.6 | 3.5 | 0.00 | 0.00 | 0.00 | 49 | 1009.5 |
| 20260509201633 | 75 | 146 | 0.9 | 5.2 | 0.00 | 0.00 | 0.00 | 50 | 1009.5 |
| 20260509201131 | 75 | 163 | 0.9 | 3.5 | 0.00 | 0.00 | 0.00 | 50 | 1009.9 |
| 20260509200626 | 75 | 19 | 2.6 | 5.2 | 0.00 | 0.00 | 0.00 | 50 | 1009.9 |
| 20260509200117 | 75 | 226 | 0.0 | 5.2 | 0.00 | 0.00 | 0.00 | 51 | 1010.0 |
| 20260509195613 | 76 | 285 | 1.7 | 5.2 | 0.00 | 0.00 | 0.00 | 51 | 1009.9 |
| 20260509195108 | 75 | 214 | 0.9 | 2.6 | 0.00 | 0.00 | 0.00 | 52 | 1009.9 |
| 20260509194607 | 75 | 312 | 3.5 | 5.2 | 0.00 | 0.00 | 0.00 | 51 | 1010.1 |
| 20260509194105 | 75 | 216 | 1.7 | 2.6 | 0.00 | 0.00 | 0.00 | 52 | 1010.2 |
| 20260509193601 | 75 | 257 | 1.7 | 7.0 | 0.00 | 0.00 | 0.00 | 52 | 1010.3 |
| 20260509193056 | 74 | 145 | 0.9 | 1.7 | 0.00 | 0.00 | 0.00 | 54 | 1010.2 |
| 20260509192553 | 74 | 191 | 0.9 | 1.7 | 0.00 | 0.00 | 0.00 | 52 | 1010.5 |
| 20260509192048 | 72 | 217 | 1.7 | 2.6 | 0.00 | 0.00 | 0.00 | 55 | 1010.4 |
| 20260509191542 | 72 | 128 | 0.9 | 3.5 | 0.00 | 0.00 | 0.00 | 55 | 1010.6 |
| 20260509191038 | 71 | 275 | 0.9 | 2.6 | 0.00 | 0.00 | 0.00 | 55 | 1010.4 |
| 20260509190536 | 72 | 143 | 0.9 | 5.2 | 0.00 | 0.00 | 0.00 | 55 | 1010.5 |
| 20260509190034 | 72 | 174 | 0.9 | 3.5 | 0.00 | 0.00 | 0.00 | 55 | 1010.5 |
| 20260509185531 | 72 | 87 | 0.0 | 2.6 | 0.00 | 0.00 | 0.00 | 55 | 1010.3 |
| 20260509185027 | 72 | 221 | 0.9 | 1.7 | 0.00 | 0.00 | 0.00 | 55 | 1010.8 |
| 20260509184526 | 72 | 138 | 0.0 | 2.6 | 0.00 | 0.00 | 0.00 | 56 | 1010.7 |
| 20260509184022 | 71 | 7 | 2.6 | 5.2 | 0.00 | 0.00 | 0.00 | 55 | 1010.9 |
| 20260509183517 | 71 | 254 | 1.7 | 6.1 | 0.00 | 0.00 | 0.00 | 55 | 1011.0 |
| 20260509183013 | 71 | 159 | 1.7 | 5.2 | 0.00 | 0.00 | 0.00 | 55 | 1011.0 |
| 20260509182509 | 72 | 293 | 3.5 | 5.2 | 0.00 | 0.00 | 0.00 | 54 | 1011.0 |
| 20260509182006 | 71 | 104 | 1.7 | 3.5 | 0.00 | 0.00 | 0.00 | 55 | 1011.1 |
| 20260509181504 | 71 | 169 | 0.0 | 1.7 | 0.00 | 0.00 | 0.00 | 55 | 1011.3 |
| 20260509181001 | 71 | 141 | 0.0 | 5.2 | 0.00 | 0.00 | 0.00 | 56 | 1011.4 |
| 20260509180457 | 71 | 227 | 0.9 | 3.5 | 0.00 | 0.00 | 0.00 | 54 | 1011.3 |
| 20260509175954 | 71 | 165 | 0.0 | 2.6 | 0.00 | 0.00 | 0.00 | 55 | 1011.5 |
| 20260509175450 | 71 | 64 | 2.6 | 5.2 | 0.00 | 0.00 | 0.00 | 55 | 1011.6 |
| 20260509174947 | 71 | 176 | 0.0 | 2.6 | 0.00 | 0.00 | 0.00 | 55 | 1011.6 |
| 20260509174443 | 71 | 268 | 2.6 | 7.0 | 0.00 | 0.00 | 0.00 | 53 | 1011.7 |
| 20260509173938 | 72 | 340 | 2.6 | 3.5 | 0.00 | 0.00 | 0.00 | 52 | 1011.5 |
| 20260509173433 | 72 | 140 | 0.0 | 2.6 | 0.00 | 0.00 | 0.00 | 52 | 1011.5 |
| 20260509172930 | 72 | 296 | 1.7 | 2.6 | 0.00 | 0.00 | 0.00 | 52 | 1011.7 |
| 20260509172427 | 71 | 304 | 0.0 | 1.7 | 0.00 | 0.00 | 0.00 | 53 | 1011.8 |
| 20260509171923 | 71 | 284 | 1.7 | 5.2 | 0.00 | 0.00 | 0.00 | 54 | 1011.6 |
| 20260509171419 | 71 | 168 | 0.0 | 5.2 | 0.00 | 0.00 | 0.00 | 54 | 1011.7 |
| 20260509170915 | 71 | 235 | 0.9 | 2.6 | 0.00 | 0.00 | 0.00 | 54 | 1011.7 |
| 20260509170411 | 70 | 262 | 3.5 | 5.2 | 0.00 | 0.00 | 0.00 | 54 | 1011.7 |
| 20260509165907 | 71 | 155 | 0.9 | 3.5 | 0.00 | 0.00 | 0.00 | 54 | 1011.8 |
| 20260509165401 | 70 | 220 | 0.9 | 5.2 | 0.00 | 0.00 | 0.00 | 55 | 1011.9 |
| 20260509164857 | 71 | 81 | 1.7 | 7.0 | 0.00 | 0.00 | 0.00 | 54 | 1011.8 |
| 20260509164353 | 70 | 57 | 1.7 | 6.1 | 0.00 | 0.00 | 0.00 | 54 | 1012.1 |
| 20260509163849 | 71 | 309 | 3.5 | 5.2 | 0.00 | 0.00 | 0.00 | 54 | 1011.8 |
| 20260509163346 | 71 | 242 | 2.6 | 3.5 | 0.00 | 0.00 | 0.00 | 53 | 1011.9 |
| 20260509162845 | 71 | 259 | 1.7 | 5.2 | 0.00 | 0.00 | 0.00 | 53 | 1012.0 |
| 20260509162343 | 69 | 136 | 0.9 | 2.6 | 0.00 | 0.00 | 0.00 | 55 | 1011.8 |
| 20260509161840 | 69 | 307 | 3.5 | 7.0 | 0.00 | 0.00 | 0.00 | 55 | 1012.1 |
| 20260509161336 | 69 | 95 | 1.7 | 2.6 | 0.00 | 0.00 | 0.00 | 55 | 1011.9 |
| 20260509160832 | 69 | 204 | 0.0 | 2.6 | 0.00 | 0.00 | 0.00 | 56 | 1011.9 |
| 20260509160328 | 68 | 263 | 2.6 | 6.1 | 0.00 | 0.00 | 0.00 | 56 | 1011.9 |
| 20260509155823 | 68 | 334 | 1.7 | 7.0 | 0.00 | 0.00 | 0.00 | 56 | 1012.1 |
| 20260509155320 | 69 | 221 | 2.6 | 3.5 | 0.00 | 0.00 | 0.00 | 55 | 1012.1 |
| 20260509154816 | 69 | 156 | 0.9 | 2.6 | 0.00 | 0.00 | 0.00 | 56 | 1012.2 |
| 20260509154313 | 69 | 70 | 3.5 | 5.2 | 0.00 | 0.00 | 0.00 | 56 | 1012.3 |
| 20260509153810 | 69 | 272 | 0.9 | 3.5 | 0.00 | 0.00 | 0.00 | 55 | 1012.3 |
| 20260509153306 | 69 | 330 | 0.9 | 5.2 | 0.00 | 0.00 | 0.00 | 57 | 1012.2 |
| 20260509152803 | 69 | 291 | 2.6 | 5.2 | 0.00 | 0.00 | 0.00 | 55 | 1012.2 |
| 20260509152259 | 70 | 212 | 5.2 | 7.0 | 0.00 | 0.00 | 0.00 | 54 | 1012.2 |
| 20260509151756 | 70 | 274 | 1.7 | 2.6 | 0.00 | 0.00 | 0.00 | 55 | 1012.2 |
| 20260509151253 | 69 | 118 | 0.9 | 1.7 | 0.00 | 0.00 | 0.00 | 56 | 1012.5 |
| 20260509150751 | 69 | 7 | 2.6 | 6.1 | 0.00 | 0.00 | 0.00 | 57 | 1012.4 |
| 20260509150249 | 68 | 162 | 1.7 | 2.6 | 0.00 | 0.00 | 0.00 | 58 | 1012.5 |
| 20260509145746 | 68 | 162 | 0.9 | 3.5 | 0.00 | 0.00 | 0.00 | 58 | 1012.6 |
| 20260509145245 | 67 | 178 | 1.7 | 3.5 | 0.00 | 0.00 | 0.00 | 59 | 1012.6 |
| 20260509144742 | 66 | 109 | 0.9 | 7.8 | 0.00 | 0.00 | 0.00 | 60 | 1012.8 |
| 20260509144239 | 67 | 250 | 1.7 | 5.2 | 0.00 | 0.00 | 0.00 | 59 | 1012.8 |
| 20260509143736 | 67 | 274 | 2.6 | 3.5 | 0.00 | 0.00 | 0.00 | 58 | 1012.9 |
| 20260509143234 | 67 | 90 | 1.7 | 5.2 | 0.00 | 0.00 | 0.00 | 59 | 1013.0 |
| 20260509142730 | 66 | 181 | 0.9 | 3.5 | 0.00 | 0.00 | 0.00 | 60 | 1013.1 |
| 20260509142226 | 66 | 155 | 1.7 | 1.7 | 0.00 | 0.00 | 0.00 | 61 | 1013.0 |
| 20260509141721 | 65 | 153 | 1.7 | 3.5 | 0.00 | 0.00 | 0.00 | 61 | 1013.0 |
| 20260509141219 | 65 | 348 | 2.6 | 2.6 | 0.00 | 0.00 | 0.00 | 61 | 1013.1 |
| 20260509140715 | 65 | 219 | 1.7 | 3.5 | 0.00 | 0.00 | 0.00 | 61 | 1013.1 |
| 20260509140213 | 65 | 130 | 0.9 | 1.7 | 0.00 | 0.00 | 0.00 | 62 | 1013.2 |
| 20260509135710 | 64 | 190 | 0.9 | 2.6 | 0.00 | 0.00 | 0.00 | 63 | 1013.0 |
| 20260509135209 | 63 | 177 | 0.9 | 2.6 | 0.00 | 0.00 | 0.00 | 64 | 1012.9 |
| 20260509134705 | 62 | 111 | 1.7 | 3.5 | 0.00 | 0.00 | 0.00 | 65 | 1013.1 |
| 20260509134202 | 62 | 54 | 0.9 | 2.6 | 0.00 | 0.00 | 0.00 | 65 | 1013.2 |
| 20260509133700 | 62 | 65 | 1.7 | 2.6 | 0.00 | 0.00 | 0.00 | 65 | 1013.2 |
| 20260509133156 | 62 | 159 | 0.9 | 6.1 | 0.00 | 0.00 | 0.00 | 65 | 1013.0 |
| 20260509132655 | 62 | 193 | 1.7 | 1.7 | 0.00 | 0.00 | 0.00 | 65 | 1013.3 |
| 20260509132153 | 62 | 250 | 2.6 | 3.5 | 0.00 | 0.00 | 0.00 | 65 | 1013.1 |
| 20260509131648 | 62 | 12 | 0.9 | 1.7 | 0.00 | 0.00 | 0.00 | 65 | 1012.8 |
| 20260509131145 | 62 | 117 | 1.7 | 1.7 | 0.00 | 0.00 | 0.00 | 65 | 1013.1 |
| 20260509130641 | 62 | 90 | 0.9 | 5.2 | 0.00 | 0.00 | 0.00 | 66 | 1013.1 |
| 20260509130137 | 61 | 210 | 1.7 | 3.5 | 0.00 | 0.00 | 0.00 | 66 | 1013.2 |
| 20260509125634 | 61 | 57 | 1.7 | 1.7 | 0.00 | 0.00 | 0.00 | 66 | 1013.4 |
| 20260509125131 | 61 | 152 | 0.9 | 2.6 | 0.00 | 0.00 | 0.00 | 67 | 1013.2 |
| 20260509124627 | 61 | 147 | 0.0 | 5.2 | 0.00 | 0.00 | 0.00 | 66 | 1013.3 |
| 20260509124125 | 61 | 68 | 1.7 | 3.5 | 0.00 | 0.00 | 0.00 | 66 | 1013.3 |
| 20260509123623 | 60 | 116 | 0.9 | 2.6 | 0.00 | 0.00 | 0.00 | 66 | 1013.2 |
| 20260509123119 | 60 | 132 | 1.7 | 1.7 | 0.00 | 0.00 | 0.00 | 66 | 1013.1 |
| 20260509122615 | 60 | 99 | 1.7 | 6.1 | 0.00 | 0.00 | 0.00 | 66 | 1013.1 |
| 20260509122113 | 60 | 346 | 2.6 | 3.5 | 0.00 | 0.00 | 0.00 | 66 | 1013.1 |
| 20260509121609 | 60 | 107 | 0.9 | 7.8 | 0.00 | 0.00 | 0.00 | 66 | 1013.1 |
| 20260509121107 | 60 | 23 | 1.7 | 5.2 | 0.00 | 0.00 | 0.00 | 66 | 1013.2 |